User: anonymous   Login
Location: Newark
(43.0000°N, 1.6781°W)
Time: 11:41:52
(UTC+00:00)
Language:

HuskySat-1 - Orbit

View from above orbital plane
View from above orbital plane
View from above satellite
View from above satellite

Ground track
Ground track

The orbit data is extracted from the following two-line orbital elements,

1 45117U 19071G   22333.93201527  .00096681  00000-0  93638-3 0  9990
2 45117  51.6314 308.9609 0011087  70.9832 289.2363 15.65529894159171
Epoch (UTC): 29 November 2022 22:22:06
Eccentricity: 0.0011087
inclination: 51.6314°
perigee height: 364 km
apogee height: 379 km
right ascension of ascending node: 308.9609°
argument of perigee: 70.9832°
revolutions per day: 15.65529894
mean anomaly at epoch: 289.2363°
orbit number at epoch: 15917

The dashed part of the orbit path shows where the satellite is in the earth's shadow,  

DLR